HISPASAT 36W-1

Last updated on Thu Nov 21 2024 00:02:43 GMT+0000 (Coordinated Universal Time)

1 41942U 17006A 24324.64472933 -.00000243 00000+0 00000+0 0 9995 2 41942 0.0012 347.2786 0001023 243.7526 24.2487 1.00271222 28450
UTC large
Height (km)
Speed (km/s)
/
Latitude / Longitude
Inclination (degrees)
Orbital Period (minutes)
Azimuth
Elevation
Range (km)
Doppler Factor

Next 0 passes for location: London (51.5072 / 0.1276)

Sorry there are no passes over London.